Вернуться в каталог

SCOUT X-4 R/B

АктивенPO
NORAD 933·ROCKET BODY·🇺🇸 United States

Запущен Nov 21, 1964 с Vandenberg Space Force Base

Loading…

Ближайшие Пролёты (ближайшие 24 часа)

TLE

СвежийSource: Space-Track

Эпоха: Sep 14, 2026, 22:03 UTC

1 00933U 64076C   26257.91926467  .00001054  00000-0  34531-3 0  9993
2 00933  81.3314  79.2645 1048953 146.5411 220.6711 12.82670933848080

Отслеживайте SCOUT X-4 R/B в реальном времени с AllMySat

Download on the App Store